Terminal Aerodrome Forecast
Issued by NWS Fort Wayne, IN

Home | Current Version | Previous Version | Graphics & Text | Print | Product List | Glossary On
Versions: 1 2 3 4 5 6 7 8 9 10 11 12
000
FTUS43 KIWX 302300
TAFFWA
TAF
KFWA 302327Z 0100/0124 02010KT P6SM BKN060
     FM010600 34004KT P6SM SCT100
     FM011500 35008KT P6SM SCT050=

USA.gov is the U.S. government's official web portal to all federal, state and local government web resources and services.